Weather History for Las Vegas, NM

Change the Weather History Date:

Friday, August 9, 2013

  Actual Average Record
Temperature  
Mean Temperature 60 °F -  
Max Temperature 75 °F 81 °F 93 °F (2011)
Min Temperature 48 °F 53 °F 48 °F (1949)
Degree Days  
Heating Degree Days 4    
Growing Degree Days 10 (Base 50)    
Moisture  
Dew Point 50 °F    
Average Humidity 75    
Maximum Humidity 96    
Minimum Humidity 46    
Precipitation  
Precipitation 0.30 in - - ()
Sea Level Pressure  
Sea Level Pressure 30.19 in    
Wind  
Wind Speed 9 mph (NE)    
Max Wind Speed 31 mph    
Max Gust Speed 43 mph    
Visibility 8 miles    
Events Rain , Thunderstorm    
Averages and records for this station are not official NWS values.
T = Trace of Precipitation, MM = Missing Value Source: NWS Daily Summary

Daily Weather History Graph

Daily Weather History Graph

Search for Another Location

Airport:

Trip Planner

Search our weather history database for the weather conditions in past years. The results will help you decide how hot, cold, wet, or windy it might be!

Date:

Astronomy

Aug. 09, 2013 Rise Set
Actual Time 6:15 AM MDT 7:56 PM MDT
Civil Twilight 5:47 AM MDT 8:23 PM MDT
Nautical Twilight 5:14 AM MDT 8:56 PM MDT
Astronomical Twilight 4:39 AM MDT 9:31 PM MDT
Moon 8:55 AM MDT (8/9) 9:16 PM MDT (8/9)
Length of Visible Light 14h 36m
Length of Day
13h 41m
Waxing Crescent, 8% of the Moon is Illuminated
Aug 9
Waxing Crescent
Aug 14
First Quarter
Aug 20
Full
Aug 28
Last Quarter
Sep 5
New

Hourly Weather History & Observations

Time (MDT) Temp. Dew Point Humidity Pressure Visibility Wind Dir Wind Speed Gust Speed Precip Events Conditions
12:53 AM 52.0 °F 50.0 °F 93% 30.01 in 10.0 mi NE 5.8 mph - N/A   Clear
1:53 AM 50.0 °F 48.9 °F 96% 30.05 in 10.0 mi North 6.9 mph - N/A   Clear
2:53 AM 50.0 °F 48.0 °F 93% 30.07 in 10.0 mi North 10.4 mph - N/A   Clear
3:53 AM 48.9 °F 46.9 °F 93% 30.07 in 10.0 mi North 6.9 mph - 0.01 in   Clear
4:53 AM 48.0 °F 46.0 °F 93% 30.07 in 10.0 mi NNE 5.8 mph - N/A   Clear
5:53 AM 48.0 °F 45.0 °F 89% 30.07 in 10.0 mi North 5.8 mph - N/A   Clear
6:53 AM 48.9 °F 46.0 °F 90% 30.09 in 10.0 mi NNW 3.5 mph - N/A   Clear
7:53 AM 54.0 °F 48.9 °F 83% 30.10 in 10.0 mi NNE 6.9 mph - N/A   Clear
8:53 AM 59.0 °F 50.0 °F 72% 30.09 in 10.0 mi North 5.8 mph - N/A   Clear
9:53 AM 63.0 °F 51.1 °F 65% 30.08 in 10.0 mi NNE 3.5 mph - N/A   Clear
10:53 AM 64.9 °F 48.9 °F 56% 30.09 in 10.0 mi Calm Calm - N/A   Clear
11:53 AM 66.9 °F 46.9 °F 49% 30.09 in 10.0 mi Variable 3.5 mph - N/A   Clear
12:53 PM 69.1 °F 50.0 °F 51% 30.07 in 10.0 mi East 6.9 mph - N/A   Clear
1:53 PM 71.1 °F 50.0 °F 47% 30.05 in 10.0 mi East 9.2 mph - N/A   Clear
2:53 PM 73.0 °F 51.1 °F 46% 30.03 in 10.0 mi East 12.7 mph 21.9 mph N/A   Clear
3:05 PM 71.6 °F 51.8 °F 50% 30.30 in 10.0 mi East 15.0 mph 23.0 mph N/A Thunderstorm Scattered Clouds
3:48 PM 60.8 °F 51.8 °F 72% 30.30 in 2.0 mi NE 31.1 mph 42.6 mph 0.10 in Rain , Thunderstorm Thunderstorms and Rain
3:53 PM 57.0 °F 48.9 °F 74% 30.12 in 2.5 mi ENE 23.0 mph 42.6 mph 0.13 in Rain , Thunderstorm Heavy Thunderstorms and Rain
4:00 PM 59.0 °F 48.2 °F 67% 30.32 in 1.0 mi NE 19.6 mph 32.2 mph 0.00 in Rain , Thunderstorm Light Thunderstorms and Rain
4:07 PM 57.2 °F 50.0 °F 77% 30.34 in 0.8 mi NW 16.1 mph 25.3 mph 0.01 in Rain , Thunderstorm Light Thunderstorms and Rain
4:10 PM 55.4 °F 50.0 °F 82% 30.34 in 1.5 mi NW 28.8 mph 34.5 mph 0.01 in Rain , Thunderstorm Light Thunderstorms and Rain
4:14 PM 53.6 °F 48.2 °F 82% 30.35 in 6.0 mi WNW 31.1 mph 39.1 mph 0.03 in Rain , Thunderstorm Thunderstorms and Rain
4:19 PM 51.8 °F 46.4 °F 82% 30.34 in 1.8 mi North 10.4 mph 39.1 mph 0.12 in Rain , Thunderstorm Heavy Thunderstorms and Rain
4:28 PM 55.4 °F 48.2 °F 77% 30.32 in 3.0 mi NE 20.7 mph 25.3 mph 0.14 in Rain , Thunderstorm Light Thunderstorms and Rain
4:53 PM 61.0 °F 48.0 °F 62% 30.11 in 10.0 mi ENE 4.6 mph - 0.14 in Thunderstorm Clear
5:07 PM 62.6 °F 46.4 °F 55% 30.33 in 10.0 mi ENE 5.8 mph - N/A   Clear
5:53 PM 66.9 °F 50.0 °F 54% 30.07 in 10.0 mi East 5.8 mph - N/A   Clear
6:53 PM 63.0 °F 55.9 °F 78% 30.10 in 10.0 mi NNE 10.4 mph - N/A   Clear
7:35 PM 62.6 °F 55.4 °F 77% 30.35 in 10.0 mi SSE 15.0 mph 18.4 mph N/A Thunderstorm Scattered Clouds
7:48 PM 62.6 °F 53.6 °F 72% 30.36 in 10.0 mi SSE 15.0 mph - N/A   Mostly Cloudy
7:53 PM 61.0 °F 54.0 °F 78% 30.12 in 10.0 mi SE 12.7 mph - 0.00 in Rain , Thunderstorm Light Rain
8:23 PM 60.8 °F 55.4 °F 82% 30.37 in 10.0 mi ESE 5.8 mph - 0.02 in   Scattered Clouds
8:53 PM 60.1 °F 55.0 °F 83% 30.11 in 10.0 mi East 6.9 mph - 0.02 in   Partly Cloudy
9:53 PM 59.0 °F 55.9 °F 90% 30.15 in 10.0 mi North 5.8 mph - N/A   Partly Cloudy
10:49 PM 57.2 °F 53.6 °F 88% 30.43 in 10.0 mi NE 11.5 mph - N/A   Mostly Cloudy
10:53 PM 57.0 °F 53.1 °F 87% 30.17 in 10.0 mi NE 11.5 mph - N/A   Mostly Cloudy
11:46 PM 57.2 °F 53.6 °F 88% 30.45 in 10.0 mi NNW 3.5 mph - N/A   Overcast
11:53 PM 57.0 °F 53.1 °F 87% 30.18 in 10.0 mi Calm Calm - N/A   Overcast